Tracking 28348 objects as of 9-Dec-2023
HD Live streaming from Space Station
objects crossing your sky now

STARLINK-2466

Track STARLINK-2466 now!
10-day predictions
STARLINK-2466 is classified as:


NORAD ID: 48125
Int'l Code: 2021-027AK
Perigee: 553.5 km
Apogee: 555.2 km
Inclination: 53.1 °
Period: 95.6 minutes
Semi major axis: 6925 km
RCS: Unknown
Launch date: April 7, 2021
Source: United States (US)
Launch site: AIR FORCE EASTERN TEST RANGE (AFETR)
Your satellite tracking list
Your tracking list is empty




NASA's NSSDC Master Catalog

Two Line Element Set (TLE):
1 48125U 21027AK  23343.09023887  .00008266  00000-0  57307-3 0  9991
2 48125  53.0543 260.1623 0001211  88.3300 271.7827 15.06405613148186
Source of the keplerian elements: AFSPC